owner,sensor,date,latitude,longitude,vertical_datum,wind_speed,wind_to_direction,wind_speed_of_gust,qcFlag 
TCOON,ioos:station:TCOON:057:1,2011-06-01T00:00:00Z,28.4460,-96.3961,0.0,6.5,116.0,7.5,'11111222,11111222,11111222' 
TCOON,ioos:station:TCOON:057:1,2011-06-01T01:00:00Z,28.4460,-96.3961,0.0,7.1,118.0,8.0,'11111222,11111222,11111222' 
TCOON,ioos:station:TCOON:057:1,2011-06-01T03:00:00Z,28.4460,-96.3961,0.0,7.0,129.0,8.3,'11111222,11111222,11111222' 
TCOON,ioos:station:TCOON:057:1,2011-06-01T04:00:00Z,28.4460,-96.3961,0.0,7.4,133.0,8.2,'11111222,11111222,11111222' 
TCOON,ioos:station:TCOON:057:1,2011-06-01T05:00:00Z,28.4460,-96.3961,0.0,6.6,134.0,7.5,'11111222,11111222,11111222' 
TCOON,ioos:station:TCOON:057:1,2011-06-01T06:00:00Z,28.4460,-96.3961,0.0,6.0,140.0,7.3,'11111222,11111222,11111222' 
TCOON,ioos:station:TCOON:057:1,2011-06-01T07:00:00Z,28.4460,-96.3961,0.0,5.2,156.0,5.6,'11111222,11111222,11111222' 
TCOON,ioos:station:TCOON:057:1,2011-06-01T08:00:00Z,28.4460,-96.3961,0.0,5.7,145.0,6.4,'11111222,11111222,11111222' 
TCOON,ioos:station:TCOON:057:1,2011-06-01T09:00:00Z,28.4460,-96.3961,0.0,4.4,132.0,4.7,'11111222,11111222,11111222' 
TCOON,ioos:station:TCOON:057:1,2011-06-01T10:00:00Z,28.4460,-96.3961,0.0,4.1,127.0,4.6,'11111222,11111222,11111222' 
TCOON,ioos:station:TCOON:057:1,2011-06-01T11:00:00Z,28.4460,-96.3961,0.0,4.7,124.0,5.1,'11111222,11111222,11111222' 
TCOON,ioos:station:TCOON:057:1,2011-06-01T12:00:00Z,28.4460,-96.3961,0.0,4.6,113.0,5.1,'11111222,11111222,11111222' 
TCOON,ioos:station:TCOON:057:1,2011-06-01T13:00:00Z,28.4460,-96.3961,0.0,3.9,103.0,4.5,'11111222,11111222,11111222' 
TCOON,ioos:station:TCOON:057:1,2011-06-01T14:00:00Z,28.4460,-96.3961,0.0,4.0,83.0,4.4,'11111222,11111222,11111222' 
TCOON,ioos:station:TCOON:057:1,2011-06-01T15:00:00Z,28.4460,-96.3961,0.0,3.1,108.0,3.6,'11111222,11111222,11111222' 
TCOON,ioos:station:TCOON:057:1,2011-06-01T16:00:00Z,28.4460,-96.3961,0.0,2.9,101.0,3.9,'11111222,11111222,11111222' 
TCOON,ioos:station:TCOON:057:1,2011-06-01T17:00:00Z,28.4460,-96.3961,0.0,2.7,61.0,3.5,'11111222,11111222,11111222' 
TCOON,ioos:station:TCOON:057:1,2011-06-01T18:00:00Z,28.4460,-96.3961,0.0,5.0,118.0,5.9,'11111222,11111222,11111222' 
TCOON,ioos:station:TCOON:057:1,2011-06-01T19:00:00Z,28.4460,-96.3961,0.0,5.1,129.0,6.1,'11111222,11111222,11111222' 
TCOON,ioos:station:TCOON:057:1,2011-06-01T20:00:00Z,28.4460,-96.3961,0.0,6.0,135.0,6.9,'11111222,11111222,11111222' 
TCOON,ioos:station:TCOON:057:1,2011-06-01T21:00:00Z,28.4460,-96.3961,0.0,5.7,130.0,6.8,'11111222,11111222,11111222' 
TCOON,ioos:station:TCOON:057:1,2011-06-01T22:00:00Z,28.4460,-96.3961,0.0,5.2,126.0,7.1,'11111222,11111222,11111222' 
TCOON,ioos:station:TCOON:057:1,2011-06-01T23:00:00Z,28.4460,-96.3961,0.0,5.3,130.0,6.5,'11111222,11111222,11111222' 
TCOON,ioos:station:TCOON:057:1,2011-06-02T00:00:00Z,28.4460,-96.3961,0.0,4.7,128.0,5.5,'11111222,11111222,11111222' 
TCOON,ioos:station:TCOON:057:1,2011-06-02T01:00:00Z,28.4460,-96.3961,0.0,5.3,141.0,5.9,'11111222,11111222,11111222' 
TCOON,ioos:station:TCOON:057:1,2011-06-02T02:00:00Z,28.4460,-96.3961,0.0,4.3,154.0,5.0,'11111222,11111222,11111222' 
TCOON,ioos:station:TCOON:057:1,2011-06-02T03:00:00Z,28.4460,-96.3961,0.0,5.0,151.0,5.5,'11111222,11111222,11111222' 
TCOON,ioos:station:TCOON:057:1,2011-06-02T04:00:00Z,28.4460,-96.3961,0.0,4.8,163.0,5.4,'11111222,11111222,11111222' 
TCOON,ioos:station:TCOON:057:1,2011-06-02T05:00:00Z,28.4460,-96.3961,0.0,4.9,167.0,5.6,'11111222,11111222,11111222' 
TCOON,ioos:station:TCOON:057:1,2011-06-02T06:00:00Z,28.4460,-96.3961,0.0,5.2,176.0,5.9,'11111222,11111222,11111222' 
TCOON,ioos:station:TCOON:057:1,2011-06-02T07:00:00Z,28.4460,-96.3961,0.0,2.7,214.0,3.1,'11111222,11111222,11111222' 
TCOON,ioos:station:TCOON:057:1,2011-06-02T08:00:00Z,28.4460,-96.3961,0.0,2.2,205.0,2.5,'11111222,11111222,11111222' 
TCOON,ioos:station:TCOON:057:1,2011-06-02T09:00:00Z,28.4460,-96.3961,0.0,2.4,207.0,2.6,'11111222,11111222,11111222' 
TCOON,ioos:station:TCOON:057:1,2011-06-02T10:00:00Z,28.4460,-96.3961,0.0,1.0,267.0,1.4,'11111222,11111222,11111222' 
TCOON,ioos:station:TCOON:057:1,2011-06-02T11:00:00Z,28.4460,-96.3961,0.0,1.9,283.0,2.4,'11111222,11111222,11111222' 
TCOON,ioos:station:TCOON:057:1,2011-06-02T12:00:00Z,28.4460,-96.3961,0.0,1.5,298.0,1.7,'11111222,11111222,11111222' 
TCOON,ioos:station:TCOON:057:1,2011-06-02T13:00:00Z,28.4460,-96.3961,0.0,0.9,311.0,1.2,'11111222,11111222,11111222' 
TCOON,ioos:station:TCOON:057:1,2011-06-02T14:00:00Z,28.4460,-96.3961,0.0,1.2,72.0,1.5,'11111222,11111222,11111222' 
TCOON,ioos:station:TCOON:057:1,2011-06-02T15:00:00Z,28.4460,-96.3961,0.0,4.1,38.0,4.9,'11111222,11111222,11111222' 
TCOON,ioos:station:TCOON:057:1,2011-06-02T16:00:00Z,28.4460,-96.3961,0.0,2.5,23.0,3.6,'11111222,11111222,11111222' 
TCOON,ioos:station:TCOON:057:1,2011-06-02T17:00:00Z,28.4460,-96.3961,0.0,1.4,60.0,1.8,'11111222,11111222,11111222' 
TCOON,ioos:station:TCOON:057:1,2011-06-02T18:00:00Z,28.4460,-96.3961,0.0,1.2,143.0,1.5,'11111222,11111222,11111222' 
TCOON,ioos:station:TCOON:057:1,2011-06-02T19:00:00Z,28.4460,-96.3961,0.0,3.0,117.0,3.8,'11111222,11111222,11111222' 
TCOON,ioos:station:TCOON:057:1,2011-06-02T20:00:00Z,28.4460,-96.3961,0.0,3.3,121.0,4.5,'11111222,11111222,11111222' 
TCOON,ioos:station:TCOON:057:1,2011-06-02T21:00:00Z,28.4460,-96.3961,0.0,3.4,127.0,4.6,'11111222,11111222,11111222' 
TCOON,ioos:station:TCOON:057:1,2011-06-02T22:00:00Z,28.4460,-96.3961,0.0,4.2,137.0,4.8,'11111222,11111222,11111222' 
TCOON,ioos:station:TCOON:057:1,2011-06-02T23:00:00Z,28.4460,-96.3961,0.0,3.7,143.0,4.3,'11111222,11111222,11111222' 
TCOON,ioos:station:TCOON:057:1,2011-06-03T00:00:00Z,28.4460,-96.3961,0.0,4.1,148.0,4.8,'11111222,11111222,11111222' 
TCOON,ioos:station:TCOON:057:1,2011-06-03T01:00:00Z,28.4460,-96.3961,0.0,3.7,169.0,4.2,'11111222,11111222,11111222' 
TCOON,ioos:station:TCOON:057:1,2011-06-03T02:00:00Z,28.4460,-96.3961,0.0,3.1,191.0,3.7,'11111222,11111222,11111222' 
TCOON,ioos:station:TCOON:057:1,2011-06-03T03:00:00Z,28.4460,-96.3961,0.0,5.0,181.0,5.4,'11111222,11111222,11111222' 
TCOON,ioos:station:TCOON:057:1,2011-06-03T04:00:00Z,28.4460,-96.3961,0.0,2.8,207.0,3.3,'11111222,11111222,11111222' 
TCOON,ioos:station:TCOON:057:1,2011-06-03T05:00:00Z,28.4460,-96.3961,0.0,2.1,207.0,2.4,'11111222,11111222,11111222' 
TCOON,ioos:station:TCOON:057:1,2011-06-03T06:00:00Z,28.4460,-96.3961,0.0,3.1,196.0,3.6,'11111222,11111222,11111222' 
TCOON,ioos:station:TCOON:057:1,2011-06-03T07:00:00Z,28.4460,-96.3961,0.0,3.4,198.0,4.0,'11111222,11111222,11111222' 
TCOON,ioos:station:TCOON:057:1,2011-06-03T08:00:00Z,28.4460,-96.3961,0.0,3.2,211.0,3.8,'11111222,11111222,11111222' 
TCOON,ioos:station:TCOON:057:1,2011-06-03T09:00:00Z,28.4460,-96.3961,0.0,1.8,209.0,2.1,'11111222,11111222,11111222' 
TCOON,ioos:station:TCOON:057:1,2011-06-03T10:00:00Z,28.4460,-96.3961,0.0,1.7,323.0,1.9,'11111222,11111222,11111222' 
TCOON,ioos:station:TCOON:057:1,2011-06-03T11:00:00Z,28.4460,-96.3961,0.0,2.7,297.0,3.3,'11111222,11111222,11111222' 
TCOON,ioos:station:TCOON:057:1,2011-06-03T12:00:00Z,28.4460,-96.3961,0.0,5.3,33.0,6.1,'11111222,11111222,11111222' 
TCOON,ioos:station:TCOON:057:1,2011-06-03T13:00:00Z,28.4460,-96.3961,0.0,5.8,36.0,6.5,'11111222,11111222,11111222' 
TCOON,ioos:station:TCOON:057:1,2011-06-03T14:00:00Z,28.4460,-96.3961,0.0,5.7,44.0,6.5,'11111222,11111222,11111222' 
TCOON,ioos:station:TCOON:057:1,2011-06-03T15:00:00Z,28.4460,-96.3961,0.0,4.5,62.0,5.0,'11111222,11111222,11111222' 
TCOON,ioos:station:TCOON:057:1,2011-06-03T16:00:00Z,28.4460,-96.3961,0.0,5.5,109.0,6.4,'11111222,11111222,11111222' 
TCOON,ioos:station:TCOON:057:1,2011-06-03T17:00:00Z,28.4460,-96.3961,0.0,5.9,126.0,7.3,'11111222,11111222,11111222' 
TCOON,ioos:station:TCOON:057:1,2011-06-03T18:00:00Z,28.4460,-96.3961,0.0,6.1,133.0,7.0,'11111222,11111222,11111222' 
TCOON,ioos:station:TCOON:057:1,2011-06-03T19:00:00Z,28.4460,-96.3961,0.0,5.8,134.0,6.8,'11111222,11111222,11111222' 
TCOON,ioos:station:TCOON:057:1,2011-06-03T20:00:00Z,28.4460,-96.3961,0.0,7.2,140.0,,'1111122,1111122,1111122' 
TCOON,ioos:station:TCOON:057:1,2011-06-03T21:00:00Z,28.4460,-96.3961,0.0,6.2,120.0,,'1111122,1111122,1111122' 
TCOON,ioos:station:TCOON:057:1,2011-06-03T22:00:00Z,28.4460,-96.3961,0.0,6.7,140.0,,'1111122,1111122,1111122' 
TCOON,ioos:station:TCOON:057:1,2011-06-03T23:00:00Z,28.4460,-96.3961,0.0,6.2,120.0,,'1111122,1111122,1111122' 
TCOON,ioos:station:TCOON:057:1,2011-06-04T00:00:00Z,28.4460,-96.3961,0.0,7.7,120.0,,'1111122,1111122,1111122' 
TCOON,ioos:station:TCOON:057:1,2011-06-04T01:00:00Z,28.4460,-96.3961,0.0,7.7,110.0,,'1111122,1111122,1111122' 
TCOON,ioos:station:TCOON:057:1,2011-06-04T02:00:00Z,28.4460,-96.3961,0.0,7.2,110.0,,'1111122,1111122,1111122' 
TCOON,ioos:station:TCOON:057:1,2011-06-04T03:00:00Z,28.4460,-96.3961,0.0,8.2,110.0,,'1111122,1111122,1111122' 
TCOON,ioos:station:TCOON:057:1,2011-06-04T04:00:00Z,28.4460,-96.3961,0.0,9.3,110.0,,'1111122,1111122,1111122' 
TCOON,ioos:station:TCOON:057:1,2011-06-04T05:00:00Z,28.4460,-96.3961,0.0,8.7,120.0,,'1111122,1111122,1111122' 
TCOON,ioos:station:TCOON:057:1,2011-06-04T06:00:00Z,28.4460,-96.3961,0.0,8.7,120.0,,'1111122,1111122,1111122' 
TCOON,ioos:station:TCOON:057:1,2011-06-04T07:00:00Z,28.4460,-96.3961,0.0,7.7,120.0,,'1111122,1111122,1111122' 
TCOON,ioos:station:TCOON:057:1,2011-06-04T08:00:00Z,28.4460,-96.3961,0.0,7.7,130.0,,'1111122,1111122,1111122' 
TCOON,ioos:station:TCOON:057:1,2011-06-04T09:00:00Z,28.4460,-96.3961,0.0,6.7,120.0,,'1111122,1111122,1111122' 
TCOON,ioos:station:TCOON:057:1,2011-06-04T10:00:00Z,28.4460,-96.3961,0.0,5.7,140.0,,'1111122,1111122,1111122' 
TCOON,ioos:station:TCOON:057:1,2011-06-04T11:00:00Z,28.4460,-96.3961,0.0,5.7,120.0,,'1111122,1111122,1111122' 
TCOON,ioos:station:TCOON:057:1,2011-06-04T12:00:00Z,28.4460,-96.3961,0.0,4.6,120.0,,'1111122,1111122,1111122' 
TCOON,ioos:station:TCOON:057:1,2011-06-04T13:00:00Z,28.4460,-96.3961,0.0,5.1,110.0,,'1111122,1111122,1111122' 
TCOON,ioos:station:TCOON:057:1,2011-06-04T14:00:00Z,28.4460,-96.3961,0.0,4.6,110.0,,'1111122,1111122,1111122' 
TCOON,ioos:station:TCOON:057:1,2011-06-04T15:00:00Z,28.4460,-96.3961,0.0,5.1,90.0,,'1111122,1111122,1111122' 
TCOON,ioos:station:TCOON:057:1,2011-06-04T16:00:00Z,28.4460,-96.3961,0.0,6.2,90.0,,'1111122,1111122,1111122' 
TCOON,ioos:station:TCOON:057:1,2011-06-04T17:00:00Z,28.4460,-96.3961,0.0,6.2,100.0,,'1111122,1111122,1111122' 
TCOON,ioos:station:TCOON:057:1,2011-06-04T18:00:00Z,28.4460,-96.3961,0.0,6.2,100.0,,'1111122,1111122,1111122' 
TCOON,ioos:station:TCOON:057:1,2011-06-04T19:00:00Z,28.4460,-96.3961,0.0,5.1,110.0,,'1111122,1111122,1111122' 
TCOON,ioos:station:TCOON:057:1,2011-06-04T20:00:00Z,28.4460,-96.3961,0.0,4.1,130.0,,'1111122,1111122,1111122' 
TCOON,ioos:station:TCOON:057:1,2011-06-04T21:00:00Z,28.4460,-96.3961,0.0,5.7,120.0,,'1111122,1111122,1111122' 
TCOON,ioos:station:TCOON:057:1,2011-06-04T22:00:00Z,28.4460,-96.3961,0.0,6.2,130.0,,'1111122,1111122,1111122' 
TCOON,ioos:station:TCOON:057:1,2011-06-04T23:00:00Z,28.4460,-96.3961,0.0,6.7,130.0,,'1111122,1111122,1111122' 
TCOON,ioos:station:TCOON:057:1,2011-06-05T00:00:00Z,28.4460,-96.3961,0.0,6.7,120.0,,'1111122,1111122,1111122' 
TCOON,ioos:station:TCOON:057:1,2011-06-05T01:00:00Z,28.4460,-96.3961,0.0,5.7,120.0,,'1111122,1111122,1111122' 
TCOON,ioos:station:TCOON:057:1,2011-06-05T02:00:00Z,28.4460,-96.3961,0.0,5.7,120.0,,'1111122,1111122,1111122' 
TCOON,ioos:station:TCOON:057:1,2011-06-05T03:00:00Z,28.4460,-96.3961,0.0,5.1,120.0,,'1111122,1111122,1111122' 
TCOON,ioos:station:TCOON:057:1,2011-06-05T04:00:00Z,28.4460,-96.3961,0.0,5.1,130.0,,'1111122,1111122,1111122' 
TCOON,ioos:station:TCOON:057:1,2011-06-05T05:00:00Z,28.4460,-96.3961,0.0,5.7,140.0,,'1111122,1111122,1111122' 
TCOON,ioos:station:TCOON:057:1,2011-06-05T06:00:00Z,28.4460,-96.3961,0.0,4.1,150.0,,'1111122,1111122,1111122' 
TCOON,ioos:station:TCOON:057:1,2011-06-05T07:00:00Z,28.4460,-96.3961,0.0,4.1,160.0,,'1111122,1111122,1111122' 
TCOON,ioos:station:TCOON:057:1,2011-06-05T08:00:00Z,28.4460,-96.3961,0.0,3.1,200.0,,'1111122,1111122,1111122' 
TCOON,ioos:station:TCOON:057:1,2011-06-05T09:00:00Z,28.4460,-96.3961,0.0,2.1,210.0,,'1111122,1111122,1111122' 
TCOON,ioos:station:TCOON:057:1,2011-06-05T10:00:00Z,28.4460,-96.3961,0.0,2.1,280.0,,'1111122,1111122,1111122' 
TCOON,ioos:station:TCOON:057:1,2011-06-05T11:00:00Z,28.4460,-96.3961,0.0,2.6,290.0,,'1111122,1111122,1111122' 
TCOON,ioos:station:TCOON:057:1,2011-06-05T12:00:00Z,28.4460,-96.3961,0.0,1.0,310.0,,'1111122,1111122,1111122' 
TCOON,ioos:station:TCOON:057:1,2011-06-05T13:00:00Z,28.4460,-96.3961,0.0,1.5,300.0,,'1111122,1111122,1111122' 
TCOON,ioos:station:TCOON:057:1,2011-06-05T14:00:00Z,28.4460,-96.3961,0.0,4.1,340.0,,'1111122,1111122,1111122' 
TCOON,ioos:station:TCOON:057:1,2011-06-05T15:00:00Z,28.4460,-96.3961,0.0,3.6,340.0,,'1111122,1111122,1111122' 
TCOON,ioos:station:TCOON:057:1,2011-06-05T16:00:00Z,28.4460,-96.3961,0.0,3.1,340.0,,'1111122,1111122,1111122' 
TCOON,ioos:station:TCOON:057:1,2011-06-05T17:00:00Z,28.4460,-96.3961,0.0,0.0,351.0,99.0,'11111222,11111222,11144222' 
TCOON,ioos:station:TCOON:057:1,2011-06-05T18:00:00Z,28.4460,-96.3961,0.0,2.6,60.0,,'1111122,1111122,1111122' 
TCOON,ioos:station:TCOON:057:1,2011-06-05T19:00:00Z,28.4460,-96.3961,0.0,2.1,170.0,,'1111122,1111122,1111122' 
TCOON,ioos:station:TCOON:057:1,2011-06-05T20:00:00Z,28.4460,-96.3961,0.0,1.5,170.0,,'1111122,1111122,1111122' 
TCOON,ioos:station:TCOON:057:1,2011-06-05T21:00:00Z,28.4460,-96.3961,0.0,5.1,170.0,,'1111122,1111122,1111122' 
TCOON,ioos:station:TCOON:057:1,2011-06-05T22:00:00Z,28.4460,-96.3961,0.0,6.2,180.0,,'1111122,1111122,1111122' 
TCOON,ioos:station:TCOON:057:1,2011-06-05T23:00:00Z,28.4460,-96.3961,0.0,4.6,220.0,,'1111122,1111122,1111122' 
TCOON,ioos:station:TCOON:057:1,2011-06-06T00:00:00Z,28.4460,-96.3961,0.0,4.6,190.0,,'1111122,1111122,1111122' 
TCOON,ioos:station:TCOON:057:1,2011-06-06T01:00:00Z,28.4460,-96.3961,0.0,4.1,200.0,,'1111122,1111122,1111122' 
TCOON,ioos:station:TCOON:057:1,2011-06-06T02:00:00Z,28.4460,-96.3961,0.0,3.6,220.0,,'1111122,1111122,1111122' 
TCOON,ioos:station:TCOON:057:1,2011-06-06T03:00:00Z,28.4460,-96.3961,0.0,4.1,200.0,,'1111122,1111122,1111122' 
TCOON,ioos:station:TCOON:057:1,2011-06-06T04:00:00Z,28.4460,-96.3961,0.0,3.6,220.0,,'1111122,1111122,1111122' 
TCOON,ioos:station:TCOON:057:1,2011-06-06T05:00:00Z,28.4460,-96.3961,0.0,3.1,210.0,,'1111122,1111122,1111122' 
TCOON,ioos:station:TCOON:057:1,2011-06-06T06:00:00Z,28.4460,-96.3961,0.0,2.6,240.0,,'1111122,1111122,1111122' 
TCOON,ioos:station:TCOON:057:1,2011-06-06T07:00:00Z,28.4460,-96.3961,0.0,2.6,270.0,,'1111122,1111122,1111122' 
TCOON,ioos:station:TCOON:057:1,2011-06-06T08:00:00Z,28.4460,-96.3961,0.0,3.1,280.0,,'1111122,1111122,1111122' 
TCOON,ioos:station:TCOON:057:1,2011-06-06T09:00:00Z,28.4460,-96.3961,0.0,2.6,300.0,,'1111122,1111122,1111122' 
TCOON,ioos:station:TCOON:057:1,2011-06-06T10:00:00Z,28.4460,-96.3961,0.0,2.1,300.0,,'1111122,1111122,1111122' 
TCOON,ioos:station:TCOON:057:1,2011-06-06T11:00:00Z,28.4460,-96.3961,0.0,3.1,300.0,,'1111122,1111122,1111122' 
TCOON,ioos:station:TCOON:057:1,2011-06-06T12:00:00Z,28.4460,-96.3961,0.0,1.5,310.0,,'1111122,1111122,1111122' 
TCOON,ioos:station:TCOON:057:1,2011-06-06T13:00:00Z,28.4460,-96.3961,0.0,3.1,310.0,,'1111122,1111122,1111122' 
TCOON,ioos:station:TCOON:057:1,2011-06-06T14:00:00Z,28.4460,-96.3961,0.0,2.1,310.0,,'1111122,1111122,1111122' 
TCOON,ioos:station:TCOON:057:1,2011-06-06T15:00:00Z,28.4460,-96.3961,0.0,1.5,290.0,,'1111122,1111122,1111122' 
TCOON,ioos:station:TCOON:057:1,2011-06-06T16:00:00Z,28.4460,-96.3961,0.0,2.6,220.0,,'1111122,1111122,1111122' 
TCOON,ioos:station:TCOON:057:1,2011-06-06T17:00:00Z,28.4460,-96.3961,0.0,2.6,190.0,,'1111122,1111122,1111122' 
TCOON,ioos:station:TCOON:057:1,2011-06-06T18:00:00Z,28.4460,-96.3961,0.0,2.6,160.0,,'1111122,1111122,1111122' 
TCOON,ioos:station:TCOON:057:1,2011-06-06T19:00:00Z,28.4460,-96.3961,0.0,4.1,160.0,,'1111122,1111122,1111122' 
TCOON,ioos:station:TCOON:057:1,2011-06-06T20:00:00Z,28.4460,-96.3961,0.0,5.1,170.0,,'1111122,1111122,1111122' 
TCOON,ioos:station:TCOON:057:1,2011-06-06T21:00:00Z,28.4460,-96.3961,0.0,6.2,180.0,,'1111122,1111122,1111122' 
TCOON,ioos:station:TCOON:057:1,2011-06-06T22:00:00Z,28.4460,-96.3961,0.0,5.7,180.0,,'1111122,1111122,1111122' 
TCOON,ioos:station:TCOON:057:1,2011-06-06T23:00:00Z,28.4460,-96.3961,0.0,5.7,190.0,,'1111122,1111122,1111122' 
TCOON,ioos:station:TCOON:057:1,2011-06-07T00:00:00Z,28.4460,-96.3961,0.0,4.1,180.0,,'1111122,1111122,1111122' 
TCOON,ioos:station:TCOON:057:1,2011-06-07T01:00:00Z,28.4460,-96.3961,0.0,4.6,190.0,,'1111122,1111122,1111122' 
TCOON,ioos:station:TCOON:057:1,2011-06-07T02:00:00Z,28.4460,-96.3961,0.0,4.6,170.0,,'1111122,1111122,1111122' 
TCOON,ioos:station:TCOON:057:1,2011-06-07T03:00:00Z,28.4460,-96.3961,0.0,2.1,130.0,,'1111122,1111122,1111122' 
TCOON,ioos:station:TCOON:057:1,2011-06-07T04:00:00Z,28.4460,-96.3961,0.0,2.1,170.0,,'1111122,1111122,1111122' 
TCOON,ioos:station:TCOON:057:1,2011-06-07T05:00:00Z,28.4460,-96.3961,0.0,4.6,170.0,,'1111122,1111122,1111122' 
TCOON,ioos:station:TCOON:057:1,2011-06-07T06:00:00Z,28.4460,-96.3961,0.0,3.6,200.0,,'1111122,1111122,1111122' 
TCOON,ioos:station:TCOON:057:1,2011-06-07T07:00:00Z,28.4460,-96.3961,0.0,5.1,200.0,,'1111122,1111122,1111122' 
TCOON,ioos:station:TCOON:057:1,2011-06-07T08:00:00Z,28.4460,-96.3961,0.0,3.6,209.0,4.5,'11111222,11111222,11111222' 
TCOON,ioos:station:TCOON:057:1,2011-06-07T09:00:00Z,28.4460,-96.3961,0.0,2.9,204.0,3.6,'11111222,11111222,11111222' 
TCOON,ioos:station:TCOON:057:1,2011-06-07T10:00:00Z,28.4460,-96.3961,0.0,2.6,200.0,,'1111122,1111122,1111122' 
TCOON,ioos:station:TCOON:057:1,2011-06-07T11:00:00Z,28.4460,-96.3961,0.0,2.6,200.0,,'1111122,1111122,1111122' 
TCOON,ioos:station:TCOON:057:1,2011-06-07T12:00:00Z,28.4460,-96.3961,0.0,1.5,270.0,,'1111122,1111122,1111122' 
TCOON,ioos:station:TCOON:057:1,2011-06-07T13:00:00Z,28.4460,-96.3961,0.0,1.5,300.0,,'1111122,1111122,1111122' 
TCOON,ioos:station:TCOON:057:1,2011-06-07T14:00:00Z,28.4460,-96.3961,0.0,2.6,290.0,,'1111122,1111122,1111122' 
TCOON,ioos:station:TCOON:057:1,2011-06-07T15:00:00Z,28.4460,-96.3961,0.0,1.5,360.0,,'1111122,1111122,1111122' 
TCOON,ioos:station:TCOON:057:1,2011-06-07T16:00:00Z,28.4460,-96.3961,0.0,1.5,20.0,,'1111122,1111122,1111122' 
TCOON,ioos:station:TCOON:057:1,2011-06-07T17:00:00Z,28.4460,-96.3961,0.0,1.5,80.0,,'1111122,1111122,1111122' 
TCOON,ioos:station:TCOON:057:1,2011-06-07T18:00:00Z,28.4460,-96.3961,0.0,2.6,100.0,,'1111122,1111122,1111122' 
TCOON,ioos:station:TCOON:057:1,2011-06-07T19:00:00Z,28.4460,-96.3961,0.0,4.1,150.0,,'1111122,1111122,1111122' 
TCOON,ioos:station:TCOON:057:1,2011-06-07T20:00:00Z,28.4460,-96.3961,0.0,5.7,160.0,,'1111122,1111122,1111122' 
TCOON,ioos:station:TCOON:057:1,2011-06-07T21:00:00Z,28.4460,-96.3961,0.0,6.2,170.0,,'1111122,1111122,1111122' 
TCOON,ioos:station:TCOON:057:1,2011-06-07T22:00:00Z,28.4460,-96.3961,0.0,5.1,150.0,,'1111122,1111122,1111122' 
TCOON,ioos:station:TCOON:057:1,2011-06-07T23:00:00Z,28.4460,-96.3961,0.0,5.7,150.0,,'1111122,1111122,1111122' 
TCOON,ioos:station:TCOON:057:1,2011-06-08T00:00:00Z,28.4460,-96.3961,0.0,5.1,150.0,,'1111122,1111122,1111122' 
TCOON,ioos:station:TCOON:057:1,2011-06-08T01:00:00Z,28.4460,-96.3961,0.0,5.7,170.0,,'1111122,1111122,1111122' 
TCOON,ioos:station:TCOON:057:1,2011-06-08T02:00:00Z,28.4460,-96.3961,0.0,5.7,160.0,,'1111122,1111122,1111122' 
TCOON,ioos:station:TCOON:057:1,2011-06-08T03:00:00Z,28.4460,-96.3961,0.0,6.7,170.0,,'1111122,1111122,1111122' 
TCOON,ioos:station:TCOON:057:1,2011-06-08T04:00:00Z,28.4460,-96.3961,0.0,6.7,160.0,,'1111122,1111122,1111122' 
TCOON,ioos:station:TCOON:057:1,2011-06-08T05:00:00Z,28.4460,-96.3961,0.0,6.7,160.0,,'1111122,1111122,1111122' 
TCOON,ioos:station:TCOON:057:1,2011-06-08T06:00:00Z,28.4460,-96.3961,0.0,8.2,160.0,,'1111122,1111122,1111122' 
TCOON,ioos:station:TCOON:057:1,2011-06-08T07:00:00Z,28.4460,-96.3961,0.0,7.7,170.0,,'1111122,1111122,1111122' 
TCOON,ioos:station:TCOON:057:1,2011-06-08T08:00:00Z,28.4460,-96.3961,0.0,8.2,170.0,,'1111122,1111122,1111122' 
TCOON,ioos:station:TCOON:057:1,2011-06-08T09:00:00Z,28.4460,-96.3961,0.0,7.2,170.0,,'1111122,1111122,1111122' 
TCOON,ioos:station:TCOON:057:1,2011-06-08T10:00:00Z,28.4460,-96.3961,0.0,7.7,180.0,,'1111122,1111122,1111122' 
TCOON,ioos:station:TCOON:057:1,2011-06-08T11:00:00Z,28.4460,-96.3961,0.0,7.2,170.0,,'1111122,1111122,1111122' 
TCOON,ioos:station:TCOON:057:1,2011-06-08T12:00:00Z,28.4460,-96.3961,0.0,6.2,180.0,,'1111122,1111122,1111122' 
TCOON,ioos:station:TCOON:057:1,2011-06-08T13:00:00Z,28.4460,-96.3961,0.0,5.7,190.0,,'1111122,1111122,1111122' 
TCOON,ioos:station:TCOON:057:1,2011-06-08T14:00:00Z,28.4460,-96.3961,0.0,6.2,180.0,,'1111122,1111122,1111122' 
TCOON,ioos:station:TCOON:057:1,2011-06-08T15:00:00Z,28.4460,-96.3961,0.0,6.7,170.0,,'1111122,1111122,1111122' 
TCOON,ioos:station:TCOON:057:1,2011-06-08T16:00:00Z,28.4460,-96.3961,0.0,6.2,170.0,,'1111122,1111122,1111122' 
TCOON,ioos:station:TCOON:057:1,2011-06-08T17:00:00Z,28.4460,-96.3961,0.0,6.2,160.0,,'1111122,1111122,1111122' 
TCOON,ioos:station:TCOON:057:1,2011-06-08T18:00:00Z,28.4460,-96.3961,0.0,6.7,160.0,,'1111122,1111122,1111122' 
TCOON,ioos:station:TCOON:057:1,2011-06-08T19:00:00Z,28.4460,-96.3961,0.0,7.2,160.0,,'1111122,1111122,1111122' 
TCOON,ioos:station:TCOON:057:1,2011-06-08T20:00:00Z,28.4460,-96.3961,0.0,7.7,150.0,,'1111122,1111122,1111122' 
TCOON,ioos:station:TCOON:057:1,2011-06-08T21:00:00Z,28.4460,-96.3961,0.0,7.2,150.0,,'1111122,1111122,1111122' 
TCOON,ioos:station:TCOON:057:1,2011-06-08T22:00:00Z,28.4460,-96.3961,0.0,7.7,150.0,,'1111122,1111122,1111122' 
TCOON,ioos:station:TCOON:057:1,2011-06-08T23:00:00Z,28.4460,-96.3961,0.0,6.2,160.0,,'1111122,1111122,1111122' 
TCOON,ioos:station:TCOON:057:1,2011-06-09T00:00:00Z,28.4460,-96.3961,0.0,5.7,150.0,,'1111122,1111122,1111122' 
TCOON,ioos:station:TCOON:057:1,2011-06-09T01:00:00Z,28.4460,-96.3961,0.0,6.2,150.0,,'1111122,1111122,1111122' 
TCOON,ioos:station:TCOON:057:1,2011-06-09T02:00:00Z,28.4460,-96.3961,0.0,7.2,150.0,,'1111122,1111122,1111122' 
TCOON,ioos:station:TCOON:057:1,2011-06-09T03:00:00Z,28.4460,-96.3961,0.0,7.2,150.0,,'1111122,1111122,1111122' 
TCOON,ioos:station:TCOON:057:1,2011-06-09T04:00:00Z,28.4460,-96.3961,0.0,7.7,150.0,,'1111122,1111122,1111122' 
TCOON,ioos:station:TCOON:057:1,2011-06-09T05:00:00Z,28.4460,-96.3961,0.0,7.2,150.0,,'1111122,1111122,1111122' 
TCOON,ioos:station:TCOON:057:1,2011-06-09T06:00:00Z,28.4460,-96.3961,0.0,6.7,150.0,,'1111122,1111122,1111122' 
TCOON,ioos:station:TCOON:057:1,2011-06-09T07:00:00Z,28.4460,-96.3961,0.0,8.2,150.0,,'1111122,1111122,1111122' 
TCOON,ioos:station:TCOON:057:1,2011-06-09T08:00:00Z,28.4460,-96.3961,0.0,6.2,160.0,,'1111122,1111122,1111122' 
TCOON,ioos:station:TCOON:057:1,2011-06-09T09:00:00Z,28.4460,-96.3961,0.0,7.2,160.0,,'1111122,1111122,1111122' 
TCOON,ioos:station:TCOON:057:1,2011-06-09T10:00:00Z,28.4460,-96.3961,0.0,5.7,170.0,,'1111122,1111122,1111122' 
TCOON,ioos:station:TCOON:057:1,2011-06-09T11:00:00Z,28.4460,-96.3961,0.0,6.2,160.0,,'1111122,1111122,1111122' 
TCOON,ioos:station:TCOON:057:1,2011-06-09T12:00:00Z,28.4460,-96.3961,0.0,5.7,160.0,,'1111122,1111122,1111122' 
TCOON,ioos:station:TCOON:057:1,2011-06-09T13:00:00Z,28.4460,-96.3961,0.0,5.7,160.0,,'1111122,1111122,1111122' 
TCOON,ioos:station:TCOON:057:1,2011-06-09T14:00:00Z,28.4460,-96.3961,0.0,5.7,160.0,,'1111122,1111122,1111122' 
TCOON,ioos:station:TCOON:057:1,2011-06-09T15:00:00Z,28.4460,-96.3961,0.0,5.1,160.0,,'1111122,1111122,1111122' 
TCOON,ioos:station:TCOON:057:1,2011-06-09T16:00:00Z,28.4460,-96.3961,0.0,4.1,160.0,,'1111122,1111122,1111122' 
TCOON,ioos:station:TCOON:057:1,2011-06-09T17:00:00Z,28.4460,-96.3961,0.0,4.1,140.0,,'1111122,1111122,1111122' 
TCOON,ioos:station:TCOON:057:1,2011-06-09T18:00:00Z,28.4460,-96.3961,0.0,5.7,140.0,,'1111122,1111122,1111122' 
TCOON,ioos:station:TCOON:057:1,2011-06-09T19:00:00Z,28.4460,-96.3961,0.0,5.7,130.0,,'1111122,1111122,1111122' 